Location: Makkiluttu
(8.5167°N, 81.1833°E)
Time: 16:13:06
(UTC+00:00)

Daily predictions for brighter satellites

Satellite Brightness Start Highest point End
(mag) Time Altitude Azimuth Time Altitude Azimuth Time Altitude Azimuth
ARIANE 5 R/B 4.2 12:08:30 10° SW 12:12:41 42° SSE 12:38:17 10° E
Cosmos 1844 Rocket 2.7 13:02:35 10° S 13:08:11 65° ESE 13:13:47 10° NNE
OAO 3 Rocket 3.5 13:06:41 10° NW 13:11:34 60° NE 13:16:27 10° ESE
GPS 2-04 Rocket1 4.4 13:08:35 10° W 13:11:36 29° NW 13:14:41 10° NNE
STARLINK-1050 4.0 13:08:20 10° NW 13:12:25 63° SW 13:16:29 10° SSE
STARLINK-1203 4.5 13:10:36 10° S 13:14:16 30° ESE 13:17:56 10° ENE
STARLINK-1241 4.4 13:13:02 10° S 13:16:41 30° ESE 13:20:20 10° ENE
Cosmos 1933 Rocket 3.8 13:13:01 10° N 13:17:19 76° W 13:21:39 10° S
STARLINK-1055 4.3 13:13:20 10° NW 13:17:22 53° WSW 13:21:24 10° SSE
Cosmos 1939 Rocket 3.0 13:14:02 10° SSE 13:17:55 55° ENE 13:21:51 10° N
H-2A R/B 3.9 13:16:45 10° E 13:18:03 11° ENE 13:19:22 10° ENE
SWIFT 3.7 13:16:07 10° SSW 13:19:27 22° SSE 13:22:40 10° ESE
CZ-4 R/B 1.5 13:15:58 10° SSE 13:20:02 62° ENE 13:24:10 10° N
Intelsat 5-1 Rocket 1.1 13:17:21 10° SW 13:20:22 47° SSE 13:22:35 10° E
STARLINK-1239 4.2 13:17:52 10° S 13:21:39 35° ESE 13:25:26 10° ENE
H-2A ROCKET BODY 1.8 13:23:31 10° SSW 13:25:14 21° SE 13:28:05 10° E
Cosmos 405 Rocket 4.3 13:22:35 10° NE 13:25:17 18° E 13:27:22 12° ESE
STARLINK-1240 4.0 13:22:43 10° SSW 13:26:37 41° ESE 13:30:30 10° NE
EXPRESS MD2 2.6 13:26:13 10° SSW 13:28:28 31° SE 13:30:24 10° ENE
STARLINK-1216 3.8 13:27:35 10° SSW 13:31:34 48° SE 13:35:32 10° NE
Cosmos 1812 3.3 13:27:53 10° SSW 13:31:41 61° W 13:35:26 10° N
STARLINK-1237 3.6 13:32:29 10° SSW 13:36:32 56° SE 13:40:34 10° NE
Cosmos 1844 3.8 13:31:40 10° SSW 13:37:14 82° WNW 13:42:52 10° NNE
ERBS 2.1 13:34:07 10° SSW 13:37:24 76° ESE 13:40:41 10° NE
NOSS 2-3 (E) 3.5 13:34:03 10° SSW 13:38:28 82° WNW 13:42:35 10° NNE
Cosmos 2233 Rocket 4.1 13:34:23 10° N 13:40:23 55° E 13:46:28 10° SSE
ASTRO E2 3.3 13:36:45 10° WSW 13:40:38 58° NNW 13:44:31 10° NE
STARLINK-1202 3.5 13:37:25 10° SSW 13:41:31 66° ESE 13:45:36 10° NE
STARLINK-1175 2.8 13:40:15 10° NNW 13:42:46 46° NE 13:43:40 30° ESE
CSL-04 Rocket 3.7 13:37:57 10° SSE 13:43:18 64° ENE 13:48:41 10° N
OAO 1 Rocket 4.4 13:39:11 10° NW 13:44:31 89° NNE 13:48:14 20° SE
ARGOS Delta rocket 4.5 13:40:34 10° S 13:45:34 59° W 13:50:18 10° NNW
Okean-O 4.3 13:43:00 10° SSW 13:46:59 33° W 13:50:57 10° NW
Palapa B4 Rocket 3.2 13:43:33 10° W 13:47:10 52° SSW 13:49:39 22° SE
STARLINK-1181 4.5 13:48:28 10° N 13:51:26 25° NE 13:52:10 23° ENE
STARLINK-1246 3.5 13:47:17 10° SW 13:51:26 89° E 13:55:33 10° NE
STARLINK-1183 4.4 13:50:00 10° N 13:53:00 26° NE 13:53:41 25° ENE
Meteor 1-27 Rocket 4.3 13:47:52 10° SSW 13:53:46 66° W 13:59:36 10° N
Cosmos 2056 Rocket 4.0 13:50:26 10° SSE 13:55:03 33° ESE 13:59:37 10° NE
STARLINK-1224 3.7 13:52:16 10° SW 13:56:24 78° WNW 14:00:31 10° NNE
BREEZE-M DEB 3.6 13:52:34 10° SW 13:59:04 55° WNW 14:01:38 10° NNE
HJ-1C 3.2 13:58:38 32° SSE 14:00:03 71° ENE 14:03:20 10° N
GPS 2-12 Rocket1 3.6 13:56:03 10° W 14:00:22 53° NNW 14:03:44 16° ENE
STARLINK-1194 4.0 13:57:46 10° NNW 14:00:59 34° NE 14:01:22 33° ENE
STARLINK-1225 3.9 13:57:15 10° SW 14:01:21 67° NW 14:05:27 10° NNE
SJ-11-01 4.4 13:58:53 23° SSE 14:01:39 56° ENE 14:06:15 10° N
STARLINK-1193 3.9 13:59:24 10° NNW 14:02:39 36° NE 14:02:58 35° ENE
OAO 2 Rocket 4.3 13:57:54 10° NNW 14:02:47 36° NNE 14:05:01 25° E
Atlas Centaur 2 3.2 13:55:46 10° WNW 14:03:44 71° SSW 14:09:05 26° SE
STARLINK-1184 3.8 14:01:01 10° NNW 14:04:19 38° NE 14:04:35 37° ENE
DMSP B5D2-2 4.2 14:00:10 10° NNE 14:05:16 51° ESE 14:10:20 10° S
STARLINK-1127 3.7 14:02:39 10° NNW 14:06:00 40° NE 14:06:12 40° ENE
STARLINK-1230 4.2 14:02:17 10° SW 14:06:20 57° NW 14:10:23 10° NNE
ARIANE 3 DEB 3.3 14:02:58 10° WSW 14:07:20 33° S 14:07:27 33° S
STARLINK-1142 3.6 14:04:20 10° NNW 14:07:42 43° NE 14:07:50 42° ENE
Cosmos 44 3.5 14:03:42 10° N 14:08:35 55° ENE 14:10:19 37° SE
DELTA-4 R/B 4.0 14:05:55 10° SW 14:08:33 19° S 14:08:33 19° S
STARLINK-1137 3.6 14:06:03 10° NNW 14:09:26 46° NE 14:09:31 45° ENE
Cosmos 1536 4.0 14:06:55 10° NNE 14:09:33 27° ENE 14:09:33 27° ENE
STARLINK-1195 3.5 14:07:45 10° NNW 14:11:11 49° NE 14:11:13 49° ENE
Ariane H10 3.6 13:45:00 10° W 14:11:21 55° SSW 14:13:48 32° SE
Milstar 3 Cent rocket 3.1 14:06:00 10° SW 14:11:47 55° SE 14:23:02 10° ENE
STARLINK-1152 3.4 14:09:30 10° NNW 14:12:55 52° NE 14:12:55 52° NE
ATLAS 2AS CENTAUR RB 2.8 14:00:37 10° W 14:13:50 38° SSW 14:15:26 29° SSE
Intelsat 5-2 Rocket 2.8 14:12:37 10° WSW 14:14:18 42° WSW 14:14:18 42° WSW
FALCON 9 R/B 2.0 14:15:46 10° SW 14:18:57 34° SSW 14:18:57 34° SSW
Cosmos 389 Rocket 3.3 14:22:00 38° NNE 14:22:00 38° NNE 14:24:13 10° N
OAO 1 4.4 14:15:39 10° SW 14:21:09 89° SSE 14:24:32 24° NE
GPS 2-15 Rocket1 3.0 14:17:21 10° WNW 14:21:59 75° SSW 14:22:40 62° SE
Cosmos 2242 Rocket 3.4 14:20:07 29° S 14:22:19 88° E 14:26:43 10° N
STARLINK-1176 3.2 14:19:05 10° NW 14:22:42 85° NW 14:22:42 85° NW
ARGOS 3.2 14:22:45 47° ESE 14:23:53 57° ENE 14:29:07 10° N
Ariane 44P Rocket 3.7 14:10:53 10° WSW 14:25:04 42° S 14:25:59 38° SSE
STARLINK-1179 3.5 14:24:40 10° NW 14:28:05 69° W 14:28:05 69° W
MOS 1 Rocket 3.5 14:25:59 10° N 14:30:10 60° WNW 14:33:26 16° SSW
Delta 168 4.4 14:23:24 10° WNW 14:31:57 54° SSW 14:33:47 42° SSE
IUS-9 SRM-1 2.5 14:27:58 10° WSW 14:35:04 63° NW 14:35:04 63° NW
IRS-1A Rocket 4.2 14:34:16 50° SSE 14:35:52 78° ENE 14:41:42 10° N
Cosmos 1943 3.9 14:32:57 10° NNW 14:38:20 48° WSW 14:41:08 26° SSW
Centaur Rocket 3.7 14:34:53 10° WSW 14:40:44 49° SW 14:40:44 49° SW
CZ-2C R/B 3.0 14:36:21 10° N 14:41:54 66° WNW 14:47:24 10° SSW
Cosmos 2278 Rocket 2.1 14:42:13 21° SSW 14:46:05 86° WNW 14:51:45 10° NNE
USA 267 4.2 14:43:00 25° S 14:46:09 40° SW 14:52:12 10° WNW
Okean 1-7 4.2 14:48:11 36° N 14:48:11 36° N 14:50:45 10° N
SL-08 RB Rocket 4.3 14:49:46 50° N 14:49:46 50° N 14:53:12 10° N
VEP-3 3.3 14:37:42 10° WSW 14:50:22 69° NNW 14:53:07 33° NE
Meteor 1-19 Rocket 4.2 14:55:39 75° N 14:55:39 75° N 15:00:44 10° N
H-2A R/B 3.0 14:56:02 35° SW 14:57:06 40° W 15:01:43 10° NNW
Centaur AC-119 3.5 14:49:58 10° WNW 14:56:52 48° NNW 14:56:52 48° NNW
Cosmos 2034 Rocket 4.3 14:54:56 10° N 14:59:39 52° NNE 14:59:39 52° NNE
Cosmos 1733 Rocket 4.5 14:59:20 10° NNW 15:02:44 35° WNW 15:02:44 35° WNW
ATLAS 5 CENTAUR R/B 4.1 15:27:12 10° SW 15:28:20 16° SW 15:28:20 16° SW
Ariane H10+ 4.1 15:22:21 10° W 15:55:32 82° S 15:55:37 82° S
H-2A R/B 4.5 15:58:33 10° NNW 16:38:34 - ESE 15:59:40 20° NNW
Cosmos 2322 Rocket 4.5 21:06:29 19° ENE 21:06:29 19° ENE 21:08:35 10° NE
SL-16 R/B 3.6 21:34:31 33° NNE 21:34:31 33° NNE 21:37:35 10° NNE
CZ-3A R/B 3.6 21:34:20 35° E 21:34:20 35° E 21:42:00 10° ENE
IDEFIX/ARIANE 42P 4.3 21:41:16 10° N 21:43:29 26° N 21:43:29 26° N
Cosmos 2285 Rocket 4.3 21:41:25 10° N 21:47:05 63° NE 21:47:05 63° NE
Centaur AC-72 4.1 21:51:12 49° SW 21:56:01 72° SSE 22:02:57 10° E
Cosmos 2341 Rocket 3.9 22:03:19 83° NNW 22:03:19 83° NNW 22:09:28 10° N
Cosmos 2360 Rocket 2.6 22:07:53 54° SE 22:08:33 57° ESE 22:14:01 10° NNE
Nadezhda 3 Rocket 4.0 22:03:28 10° N 22:09:46 78° E 22:12:03 43° SSE
Cosmos 372 Rocket 4.5 22:14:04 10° N 22:19:07 58° ENE 22:24:13 10° SSE
MSX 4.3 22:18:59 10° N 22:23:43 44° NW 22:23:43 44° NW
BLOCK DM-SL R/B 4.2 22:27:35 24° SSE 22:27:35 24° SSE 22:33:01 10° ESE
STARLINK-32 4.4 22:28:11 41° ESE 22:28:11 41° ESE 22:31:42 10° NE
Cosmos 1315 Rocket 3.5 22:24:55 10° N 22:27:46 47° N 22:27:46 47° N
STARLINK-40 4.3 22:29:46 43° ESE 22:29:46 43° ESE 22:33:22 10° NE
Sea Lan Dem Rocket 4.2 22:27:00 39° SW 22:29:50 52° SSE 23:40:32 10° E
Cosmos 773 Rocket 3.9 22:29:26 54° S 22:30:36 82° ESE 22:35:49 10° NNE
Cosmos 1825 3.3 22:32:08 35° N 22:32:08 35° N 22:34:26 10° N
STARLINK-44 4.2 22:31:20 46° ESE 22:31:20 46° ESE 22:35:01 10° NE
STARLINK-37 3.9 22:33:10 55° ESE 22:33:10 55° ESE 22:36:53 10° NE
Cosmos 2219 Rocket 4.1 22:28:38 10° SSE 22:33:11 26° ESE 22:37:43 10° NE
Cosmos 2151 3.2 22:33:56 56° NNW 22:33:56 56° NNW 22:37:25 10° N
STARLINK-36 4.0 22:34:09 50° SE 22:34:11 50° ESE 22:37:55 10° NE
PAYLOAD A 3.8 22:30:45 10° N 22:35:24 59° WNW 22:35:26 59° W
STARLINK-68 3.6 22:36:25 65° ESE 22:36:25 65° ESE 22:40:15 10° NE
ATLAS 3B CENTAUR R/B 2.2 22:38:02 30° ENE 22:38:02 30° ENE 22:40:22 10° ESE
STARLINK-63 3.6 22:37:51 63° SE 22:37:57 63° SE 22:41:49 10° NE
Cosmos 864 Rocket 4.3 22:36:07 32° SSW 22:39:12 78° W 22:45:19 10° N
GPS 2-12 Rocket1 3.4 22:39:48 49° S 22:39:48 49° S 22:44:02 10° SE
STARLINK-35 3.7 22:39:16 60° SE 22:39:30 61° SE 22:43:20 10° NE
STARLINK-1012 4.5 22:39:25 37° SSE 22:40:19 43° ESE 22:44:15 10° NE
Cosmos 2221 3.9 22:36:53 10° NNW 22:39:03 26° NW 22:39:03 26° NW
STARLINK-51 3.6 22:40:52 63° SSE 22:41:09 66° SE 22:45:01 10° NE
STARLINK-30 3.5 22:42:26 64° SSE 22:42:47 69° SE 22:46:39 10° NE
Cosmos 2218 Rocket 3.9 22:40:43 35° SSW 22:43:20 63° W 22:49:34 10° N
Cosmos 1484 Rocket 4.3 22:39:53 10° NE 22:43:31 34° E 22:47:00 11° SSE
STARLINK-72 3.4 22:44:02 65° S 22:44:26 74° SE 22:48:19 10° NE
ARIANE 5 R/B 1.9 22:45:04 35° SSE 22:45:04 35° SSE 22:48:15 10° E
Cosmos 2237 4.3 22:43:47 44° WSW 22:45:02 53° WNW 22:50:34 10° N
Cosmos 1766 Rocket 3.4 22:43:57 49° SSW 22:45:06 80° W 22:49:28 10° N
STARLINK-24 3.4 22:44:45 69° SSW 22:45:11 85° SE 22:49:11 10° NE
Cosmos 2322 Rocket 3.6 22:48:20 21° WNW 22:48:20 21° WNW 22:51:58 10° NNW
STARLINK-59 3.3 22:47:21 68° SSW 22:47:49 89° ESE 22:51:43 10° NE
STARLINK-56 3.3 22:48:39 63° SSW 22:49:14 86° ESE 22:53:07 10° NE
STARLINK-1026 3.9 22:48:58 39° S 22:50:14 60° SE 22:54:18 10° NE
Meteor 2-2 Rocket 4.4 22:44:26 10° NNW 22:50:16 54° W 22:54:49 17° SSW
STARLINK-73 3.3 22:49:50 63° SSW 22:50:24 90° ESE 22:54:13 10° NE
H-2A R/B 4.0 22:54:24 15° NW 22:54:24 15° NW 22:55:19 10° NW
STARLINK-38 3.3 22:51:43 59° SW 22:52:23 84° NW 22:56:15 10° NNE
STARLINK-65 3.3 22:53:31 55° SW 22:54:17 80° NW 22:58:10 10° NNE
Cosmos 2150 Rocket 3.8 22:50:01 10° NNW 22:55:07 76° WSW 23:00:15 10° S
STARLINK-1013 3.7 22:53:45 38° SSW 22:55:11 70° SE 22:59:18 10° NE
STARLINK-53 3.3 22:54:43 55° WSW 22:55:23 70° NW 22:59:11 10° NNE
COSMOS 2428 3.8 22:53:12 10° S 22:58:34 43° ESE 23:03:55 10° NE
Lacrosse 4 Rocket 1.3 22:55:47 10° NNW 22:59:49 55° WSW 23:03:47 10° S
STARLINK-1009 3.6 22:58:32 36° SSW 23:00:10 82° SE 23:04:17 10° NE
STARLINK-50 3.5 22:59:07 43° WSW 23:00:14 67° NW 23:04:13 10° NNE
SL-08 R/B 4.4 22:55:05 10° S 23:01:08 76° W 23:07:23 10° N
CZ-4B R/B 4.1 22:56:48 10° NNE 23:01:10 85° ESE 23:05:05 13° S
Cosmos 2263 Rocket 3.3 22:58:29 10° N 23:03:48 46° ENE 23:09:05 10° SSE
ATLAS 2A CENTAUR R/B 2.7 23:00:10 26° WSW 23:03:55 76° SSE 23:06:44 10° ENE
STARLINK-1015 3.5 23:03:19 33° SW 23:05:08 86° NW 23:09:16 10° NNE
STARLINK-25 3.5 23:05:27 38° WSW 23:06:33 54° NW 23:10:12 10° NNE
Timation 1 Rocket 4.4 23:01:37 10° NNW 23:07:34 84° ENE 23:13:32 10° SSE
Iridium 4 Rocket 4.4 23:03:37 10° SSE 23:07:35 40° E 23:11:46 10° NNE
ARIANE 5 DEB (SYLDA) 4.2 23:01:12 22° WSW 23:08:21 46° S 23:12:41 10° ESE
STARLINK-1016 3.5 23:08:06 29° SW 23:10:06 73° NW 23:14:13 10° NNE
SAR-Lupe-4 3.9 23:09:31 25° SSW 23:11:08 40° WSW 23:14:30 10° NNW
ATLAS 5 CENTAUR R/B 4.0 23:09:48 10° SSE 23:12:14 15° ESE 23:14:37 10° ENE
CZ-2C R/B 3.6 23:09:18 10° NNW 23:13:33 26° WNW 23:15:23 21° WSW
CZ-4B R/B 1.1 23:11:34 13° S 23:14:14 55° W 23:17:13 10° NNW
Meteor PRIRODA 4.2 23:10:57 10° NNE 23:14:31 56° E 23:18:06 10° S
STARLINK-1008 3.7 23:12:53 26° SW 23:15:04 63° NW 23:19:08 10° NNE
Cosmos 2227 4.4 23:09:29 10° NNW 23:15:15 80° ENE 23:20:59 10° SSE
GPS 2-04 Rocket1 3.2 23:13:15 22° W 23:15:27 41° SW 23:19:24 10° SSE
STARLINK-1010 3.9 23:14:14 25° WSW 23:16:26 53° NW 23:20:33 10° NNE
STARLINK-1245 4.2 23:14:09 10° NNW 23:18:13 60° NE 23:22:18 10° SE
Cosmos 1743 Rocket 4.0 23:14:55 10° S 23:19:20 64° E 23:23:43 10° NNE
STARLINK-1014 3.8 23:17:43 23° WSW 23:20:03 53° NW 23:24:03 10° NNE
Meteor 2-3 Rocket 3.7 23:16:36 10° SSW 23:22:14 65° W 23:27:49 10° N
STARLINK-1233 3.9 23:19:04 10° NNW 23:23:11 70° NE 23:27:18 10° SE
STARLINK-1025 4.0 23:22:28 20° WSW 23:25:00 46° NW 23:28:58 10° NNE
Lacrosse 5 rocket 3.4 23:21:55 10° S 23:25:25 24° ESE 23:28:44 10° ENE
GPS 2-17 Rocket1 3.1 23:23:05 19° WSW 23:26:09 65° SSE 23:30:39 10° ENE
STARLINK-1204 3.7 23:24:02 10° NNW 23:28:10 82° NE 23:32:18 10° SE
STARLINK-1017 4.3 23:27:15 17° WSW 23:29:59 39° NW 23:33:51 10° NNE
Cosmos 2333 Rocket 2.2 23:25:41 10° SSW 23:31:16 65° WNW 23:36:50 10° N
deb Olympus 4.4 23:17:03 13° W 23:32:28 65° S 23:36:20 10° E
SWIFT 2.5 23:28:29 10° WNW 23:32:38 73° NNE 23:36:49 10° ESE
STARLINK-1238 3.5 23:29:01 10° NW 23:33:08 86° SW 23:37:16 10° SSE
Ariane V96 H10-3 2.8 23:31:27 13° W 23:34:36 40° SSW 23:36:47 10° ESE
STARLINK-1023 4.5 23:31:54 15° WSW 23:34:48 34° NW 23:38:34 10° NNE
ARIANE 5 R/B 2.0 23:35:03 15° SW 23:36:24 26° S 23:40:22 10° ESE
Okean O Rocket 4.1 23:33:09 10° NE 23:36:31 22° E 23:39:52 10° SSE
STARLINK-1201 3.5 23:34:00 10° NW 23:38:07 73° SW 23:42:14 10° SSE
Cosmos 1125 Rocket 3.8 23:33:54 10° NNW 23:38:47 43° WSW 23:43:43 10° S
STARLINK-1206 3.6 23:38:59 10° NW 23:43:03 62° WSW 23:47:09 10° SSE
ARIANE 5 R/B 4.1 23:42:05 10° S 23:44:17 14° SSE 23:48:19 10° ESE
CCE 1 Rocket 3.8 23:40:58 10° SW 23:44:44 52° SSE 23:48:51 10° ENE
Cosmos 1151 Rocket 3.0 23:41:11 10° N 23:45:34 81° W 23:49:55 10° S
Meteor 1-31 Rocket 4.4 23:44:45 10° NW 23:47:18 17° WNW 23:49:51 10° WSW
USA 32 4.3 23:42:24 10° SSW 23:47:24 46° W 23:52:23 10° NNW
NOSS 3-3 (A) 4.3 23:42:12 10° SSW 23:47:41 59° ESE 23:53:16 10° NE
NOSS 3-3 (C) 4.3 23:42:19 10° S 23:47:47 58° ESE 23:53:22 10° NE
STARLINK-1205 3.7 23:44:00 10° NW 23:48:01 53° WSW 23:52:04 10° SSE
ASTRO E2 3.1 23:44:32 10° WNW 23:48:20 43° SSW 23:52:08 10° SE
ALOS 3.1 23:47:28 10° NNW 23:51:36 32° WNW 23:55:44 10° SW
ARIANE 5 R/B 3.4 23:46:49 10° W 23:51:54 56° S 23:55:24 10° E
STARLINK-1218 3.9 23:49:01 10° NW 23:52:58 45° WSW 23:56:56 10° SSE
